Weather History for Joplin, MO

Change the Weather History Date:

Tuesday, July 30, 2013

  Actual Average Record
Temperature  
Mean Temperature 78 °F 81 °F  
Max Temperature 87 °F 92 °F 107 °F (1986)
Min Temperature 68 °F 70 °F 56 °F (1965)
Degree Days  
Heating Degree Days 0 0  
Month to date heating degree days 0 0  
Since 1 June heating degree days 12 5  
Since 1 July heating degree days 0 0  
Cooling Degree Days 13 16  
Month to date cooling degree days 394 459  
Year to date cooling degree days 861 957  
Since 1 June cooling degree days 717 777  
Growing Degree Days 26 (Base 50)    
Moisture  
Dew Point 71 °F    
Average Humidity 83    
Maximum Humidity 100    
Minimum Humidity 65    
Precipitation  
Precipitation 0.95 in 0.10 in 2.06 in (2008)
Month to date precipitation 3.08 3.71  
Year to date precipitation 30.86 27.52  
Snow  
Snow 0.00 in - - ()
Month to date snowfall 0.0  
Since 1 June snowfall 0.0  
Since 1 July snowfall 0.0  
Snow Depth 0.00 in    
Sea Level Pressure  
Sea Level Pressure 30.01 in    
Wind  
Wind Speed 6 mph (SSW)    
Max Wind Speed 16 mph    
Max Gust Speed 21 mph    
Visibility 7 miles    
Events Rain , Thunderstorm    
T = Trace of Precipitation, MM = Missing Value Source: NWS Daily Summary

Daily Weather History Graph

Daily Weather History Graph

Search for Another Location

Airport:

Trip Planner

Search our weather history database for the weather conditions in past years. The results will help you decide how hot, cold, wet, or windy it might be!

Date:

Astronomy

Jul. 30, 2013 Rise Set
Actual Time 6:21 AM CDT 8:26 PM CDT
Civil Twilight 5:52 AM CDT 8:55 PM CDT
Nautical Twilight 5:17 AM CDT 9:30 PM CDT
Astronomical Twilight 4:38 AM CDT 10:08 PM CDT
Moon 12:38 AM CDT (7/30) 2:48 PM CDT (7/30)
Length of Visible Light 15h 03m
Length of Day
14h 05m
Last Quarter, 41% of the Moon is Illuminated
Jul 30
Last Quarter
Aug 6
New
Aug 14
First Quarter
Aug 20
Full
Aug 28
Last Quarter

Hourly Weather History & Observations

Time (CDT) Temp. Heat Index Dew Point Humidity Pressure Visibility Wind Dir Wind Speed Gust Speed Precip Events Conditions
12:37 AM 73.4 °F - 71.6 °F 94% 30.05 in 5.0 mi NW 16.1 mph 24.2 mph 0.09 in Rain , Thunderstorm Rain
12:49 AM 69.8 °F - 68.0 °F 94% 30.04 in 1.8 mi NE 12.7 mph 25.3 mph 0.25 in Rain , Thunderstorm Heavy Thunderstorms and Rain
12:53 AM 68.0 °F - 68.0 °F 100% 30.00 in 1.2 mi NE 13.8 mph 19.6 mph 0.36 in Rain , Thunderstorm Heavy Thunderstorms and Rain
1:00 AM 68.0 °F - 68.0 °F 100% 30.04 in 1.0 mi NE 6.9 mph 18.4 mph 0.23 in Rain , Thunderstorm Heavy Thunderstorms and Rain
1:29 AM 68.0 °F - 68.0 °F 100% 30.01 in 2.5 mi East 11.5 mph 20.7 mph 0.64 in Rain , Thunderstorm Heavy Rain
1:33 AM 68.0 °F - 68.0 °F 100% 30.01 in 3.0 mi ESE 9.2 mph 20.7 mph 0.66 in Rain , Thunderstorm Heavy Rain
1:44 AM 69.8 °F - 68.0 °F 94% 30.00 in 4.0 mi East 10.4 mph - 0.70 in Rain , Thunderstorm Heavy Thunderstorms and Rain
1:53 AM 69.1 °F - 68.0 °F 96% 29.98 in 5.0 mi Variable 6.9 mph - 0.73 in Rain , Thunderstorm Thunderstorms and Rain
2:02 AM 69.8 °F - 69.8 °F 100% 30.02 in 5.0 mi South 8.1 mph - 0.03 in Rain , Thunderstorm Thunderstorms and Rain
2:24 AM 69.8 °F - 69.8 °F 100% 30.02 in 4.0 mi SW 8.1 mph 17.3 mph 0.10 in Rain Heavy Rain
2:28 AM 69.8 °F - 69.8 °F 100% 30.03 in 2.5 mi West 5.8 mph 16.1 mph 0.12 in Rain Heavy Rain
2:43 AM 69.8 °F - 69.8 °F 100% 30.01 in 1.8 mi Calm Calm - 0.19 in Rain , Thunderstorm Rain
2:47 AM 69.8 °F - 69.8 °F 100% 30.01 in 3.0 mi Calm Calm - 0.20 in Rain , Thunderstorm Rain
2:53 AM 70.0 °F - 69.1 °F 97% 29.97 in 6.0 mi East 4.6 mph - 0.20 in Rain , Thunderstorm Light Rain
3:00 AM 69.8 °F - 69.8 °F 100% 30.01 in 9.0 mi East 5.8 mph - 0.01 in Rain Light Rain
3:50 AM 73.4 °F - 71.6 °F 94% 29.98 in 5.0 mi SSE 12.7 mph 20.7 mph 0.13 in Rain Rain
3:53 AM 73.0 °F - 72.0 °F 96% 29.94 in 5.0 mi SSE 13.8 mph 20.7 mph 0.14 in Rain Rain
4:11 AM 73.4 °F - 71.6 °F 94% 30.00 in 6.0 mi Calm Calm - 0.02 in Rain Light Rain
4:45 AM 71.6 °F - 69.8 °F 94% 30.01 in 10.0 mi South 10.4 mph - 0.05 in Rain Light Rain
4:53 AM 72.0 °F - 69.1 °F 91% 29.98 in 10.0 mi South 11.5 mph - 0.05 in Rain Light Rain
5:53 AM 71.1 °F - 70.0 °F 96% 29.99 in 10.0 mi SW 4.6 mph - 0.00 in   Overcast
6:53 AM 71.1 °F - 69.1 °F 93% 29.99 in 10.0 mi SSE 3.5 mph - N/A   Overcast
7:53 AM 71.1 °F - 69.1 °F 93% 30.01 in 10.0 mi South 5.8 mph - 0.01 in Rain Light Rain
8:53 AM 72.0 °F - 70.0 °F 93% 30.02 in 10.0 mi South 6.9 mph - 0.00 in   Overcast
9:53 AM 72.0 °F - 71.1 °F 97% 30.02 in 3.0 mi SW 4.6 mph - 0.03 in Rain Light Rain
10:53 AM 75.9 °F - 73.0 °F 91% 30.01 in 10.0 mi SSW 5.8 mph - 0.00 in   Overcast
11:48 AM 78.8 °F - 73.4 °F 83% 30.05 in 10.0 mi SW 9.2 mph - N/A   Overcast
11:53 AM 78.1 °F - 73.0 °F 84% 30.02 in 10.0 mi SW 8.1 mph - N/A   Overcast
12:53 PM 81.0 °F 85.8 °F 73.0 °F 77% 30.01 in 10.0 mi SW 10.4 mph - N/A   Overcast
1:07 PM 80.6 °F 84.6 °F 71.6 °F 74% 30.04 in 10.0 mi SW 8.1 mph - N/A   Overcast
1:53 PM 82.0 °F 87.4 °F 73.0 °F 74% 30.00 in 10.0 mi WSW 6.9 mph - N/A   Mostly Cloudy
2:53 PM 84.9 °F 90.7 °F 72.0 °F 65% 29.98 in 10.0 mi WSW 12.7 mph - N/A   Mostly Cloudy
3:53 PM 84.2 °F 89.6 °F 71.6 °F 66% 30.01 in 10.0 mi Variable 6.9 mph - N/A   Overcast
4:53 PM 84.0 °F 90.2 °F 73.0 °F 69% 29.98 in 10.0 mi WSW 5.8 mph - N/A   Overcast
5:53 PM 82.0 °F 86.7 °F 72.0 °F 71% 29.98 in 10.0 mi SW 8.1 mph - N/A   Mostly Cloudy
6:53 PM 82.0 °F 87.4 °F 73.0 °F 74% 29.98 in 10.0 mi WSW 4.6 mph - N/A   Mostly Cloudy
7:53 PM 80.1 °F 84.2 °F 73.0 °F 79% 29.98 in 10.0 mi Variable 3.5 mph - N/A   Mostly Cloudy
8:53 PM 78.1 °F - 75.0 °F 90% 29.99 in 10.0 mi Calm Calm - 0.00 in   Overcast
9:01 PM 78.8 °F - 73.4 °F 83% 30.02 in 10.0 mi Calm Calm - N/A   Mostly Cloudy
9:53 PM 75.9 °F - 73.9 °F 94% 30.01 in 10.0 mi Calm Calm - N/A   Overcast
10:53 PM 75.9 °F - 73.9 °F 94% 30.02 in 10.0 mi North 3.5 mph - N/A   Overcast
11:53 PM 77.0 °F - 73.9 °F 90% 30.02 in 10.0 mi North 3.5 mph - N/A   Overcast